CAPE
0 0 0 2 2 0 0 0 0 0 0 0 0 0 0 5 23 22 29 15 48 39 19 21 51 26 20 17 18 38 35 47 60 73 52 40 29 15 6 16 14 18 15
0 0 0 0 0 0 0 0 0 0 0 0 0 0 0 0 0 13 26 31 56 67 47 38 18 21 32 32 25 24 26 32 36 51 73 57 45 26 10 11 12 21 14
0 0 0 0 0 0 0 0 0 0 0 0 0 0 0 0 4 21 18 32 35 35 72 44 35 16 26 21 15 18 13 18 27 30 38 49 46 31 17 17 21 20 23
0 0 0 0 0 0 0 0 0 0 0 0 0 0 0 4 0 11 10 13 32 21 33 60 43 29 19 32 25 29 13 10 18 16 10 23 28 28 21 6 14 19 22
0 0 0 0 0 0 0 0 0 0 0 0 0 0 0 0 0 0 0 5 25 25 10 8 2 17 30 9 10 13 18 7 19 14 12 3 17 23 18 17 11 5 25
0 0 0 0 0 0 0 0 0 0 0 0 0 0 0 0 0 0 0 0 0 8 7 6 2 6 17 27 7 0 14 8 6 7 12 0 0 11 11 11 18 14 14
0 0 0 0 0 0 0 0 0 0 0 0 0 0 0 0 0 0 0 0 0 0 0 0 0 0 0 0 2 0 10 11 9 6 0 13 14 12 9 6 18 26 26
0 0 0 0 0 0 0 0 0 0 0 0 0 0 0 0 0 0 0 0 0 0 0 0 0 0 0 0 0 0 0 1 0 9 4 3 16 32 36 36 22 26 15
0 0 0 0 0 0 0 0 0 0 0 0 0 0 0 0 0 0 0 0 0 0 0 0 0 0 0 0 0 0 0 0 0 11 6 6 6 9 12 15 33 19 21
0 0 0 0 0 0 0 0 0 0 0 0 0 0 0 0 0 0 0 0 0 0 0 0 0 0 0 0 0 0 0 0 0 2 20 5 3 5 11 3 21 10 16
0 0 0 0 0 0 0 0 0 0 0 0 0 0 0 0 0 0 0 0 0 0 0 0 0 0 0 0 0 0 0 0 0 0 4 24 7 11 24 8 16 9 13
1 0 0 0 0 0 0 0 0 0 0 0 0 0 0 0 0 0 0 0 0 0 0 0 0 0 0 0 0 0 0 0 0 0 0 0 36 3 55 10 6 4 4
1 2 0 0 0 0 0 0 0 0 0 0 1 0 0 0 0 0 0 0 0 0 0 0 0 0 0 0 0 0 0 0 0 0 0 0 0 39 19 34 17 6 2
0 0 0 0 0 0 0 0 0 0 0 0 0 1 0 0 0 0 0 0 0 0 0 0 0 0 0 0 0 0 0 0 0 0 0 2 0 1 23 48 38 25 8
0 0 0 0 0 0 0 0 0 0 0 0 0 0 0 1 0 0 0 0 6 32 6 0 0 0 0 0 0 0 0 0 0 0 0 0 0 0 0 9 18 46 21
0 0 0 0 0 0 0 0 0 0 3 0 8 0 1 1 0 0 0 0 0 21 39 0 0 0 0 0 0 0 0 0 0 0 0 0 0 0 0 0 7 17 24
0 0 0 0 0 0 0 1 1 0 2 4 0 1 1 0 0 0 0 0 0 0 1 10 0 0 0 0 0 0 0 0 0 0 0 0 0 0 0 0 0 3 14
1 2 1 0 0 1 1 0 0 1 0 1 4 0 0 0 1 0 1 0 6 0 1 23 0 0 0 0 0 0 0 0 0 0 0 0 0 0 0 0 0 0 0
0 0 2 1 0 1 1 0 0 2 0 0 0 0 0 8 3 6 0 2 0 2 1 6 18 0 0 0 0 0 0 0 0 0 0 0 0 0 0 0 0 0 0
0 0 0 2 1 8 1 0 0 8 4 2 2 2 7 10 2 4 3 0 0 0 0 1 1 5 0 0 0 0 0 0 0 0 0 0 0 0 0 0 0 0 0
0 0 0 1 10 15 1 0 0 23 30 30 28 21 21 11 4 4 2 1 0 1 2 1 0 0 0 0 0 0 0 0 0 0 0 0 0 0 0 0 0 0 0
0 0 0 1 12 9 16 10 11 33 16 20 23 25 16 6 0 2 0 5 6 17 18 1 0 0 0 0 0 0 0 0 0 0 0 0 0 0 0 0 0 0 0
0 0 0 0 1 10 7 6 8 14 1 9 4 13 15 8 0 2 0 0 0 3 16 11 1 3 6 2 0 0 0 0 0 0 0 0 0 0 0 0 0 0 0
0 0 1 0 0 0 1 2 0 0 9 5 3 4 6 7 4 6 9 2 1 0 0 0 0 3 1 0 0 0 0 0 0 0 0 0 0 0 0 0 0 0 0
0 0 1 1 1 0 0 0 0 0 0 3 12 27 21 1 0 0 3 6 6 5 0 0 0 0 0 0 0 0 0 0 0 0 0 0 0 0 0 0 0 0 0
0 1 1 0 0 1 0 0 0 1 1 5 1 8 0 0 0 0 0 2 3 1 1 0 0 0 0 0 0 0 0 0 0 0 0 0 0 0 0 0 0 0 0
CIN
0 0 0 -10 -23 0 0 0 0 0 0 0 0 0 0 -6 -4 -17 -1 -32 -7 -1 -1 -1 0 0 0 -2 -4 -3 -4 0 0 0 0 0 0 0 0 0 0 0 0
0 0 0 0 0 0 0 0 0 0 0 0 0 0 0 0 -4 -9 -2 -17 -13 -2 -1 -1 0 0 0 0 -2 -3 -4 -5 -3 0 0 0 0 0 0 0 -1 0 0
0 0 0 0 0 0 0 0 0 0 0 0 0 0 0 0 -2 -3 -32 -22 -19 -23 -4 -1 -1 -1 -2 0 0 -1 -2 -5 -8 -4 -2 0 0 0 0 0 -1 -1 -1
0 0 0 0 0 0 0 0 0 0 0 0 0 0 0 -14 0 -2 -14 -12 -6 -24 -25 -10 -7 -4 -2 0 0 0 0 -1 -9 -5 -6 -2 -1 -3 -3 0 0 -1 -1
0 0 0 0 0 0 0 0 0 0 0 0 0 0 0 0 0 0 0 -2 -14 -33 -34 -60 -26 -29 -4 -3 0 0 -1 -1 -3 -4 -4 -4 -6 -5 -3 -1 -1 0 -2
0 0 0 0 0 0 0 0 0 0 0 0 0 0 0 0 0 0 0 0 0 -11 -33 -23 -8 -11 -38 -5 -1 -1 -1 -1 -1 0 0 0 0 -2 -1 -1 -1 -1 -1
0 0 0 0 0 0 0 0 0 0 0 0 0 0 0 0 0 0 0 0 0 0 0 0 0 0 0 0 -6 0 -2 -1 -1 0 0 -1 -3 -5 -1 0 -3 -1 -2
0 0 0 0 0 0 0 0 0 0 0 0 0 0 0 0 0 0 0 0 0 0 0 0 0 0 0 0 0 0 0 -1 0 -2 -2 -1 -4 0 0 0 -2 -2 -3
0 0 0 0 0 0 0 0 0 0 0 0 0 0 0 0 0 0 0 0 0 0 0 0 0 0 0 0 0 0 0 0 0 -2 -5 0 -2 -3 -2 -3 0 -4 -2
0 0 0 0 0 0 0 0 0 0 0 0 0 0 0 0 0 0 0 0 0 0 0 0 0 0 0 0 0 0 0 0 0 -3 -2 -7 -1 -1 -1 0 -2 -4 -3
0 0 0 0 0 0 0 0 0 0 0 0 0 0 0 0 0 0 0 0 0 0 0 0 0 0 0 0 0 0 0 0 0 0 -4 -1 -5 -2 -3 -4 -2 -5 -2
0 0 0 0 0 0 0 0 -60 0 0 0 0 0 0 0 0 0 0 0 0 0 0 0 0 0 0 0 0 0 0 0 0 0 0 0 0 -7 -1 -5 -7 -1 -2
0 -35 0 0 0 0 0 0 0 0 0 0 -72 0 0 0 0 0 0 0 0 0 0 0 0 0 0 0 0 0 0 0 0 0 0 0 0 -1 0 -8 -5 -7 -2
0 0 0 0 0 0 0 0 0 0 0 0 0 -30 0 0 0 0 0 0 0 0 0 0 0 0 0 0 0 0 0 0 0 0 0 -4 0 -1 -12 0 -6 -8 -8
0 0 0 0 0 0 0 0 0 0 0 -9 -21 0 0 -134 0 0 0 0 -35 0 -3 0 0 0 0 0 0 0 0 0 0 0 0 0 0 0 0 -22 -10 -11 -9
0 0 0 0 0 0 0 0 0 0 -110 0 -123 0 -127 -34 0 0 0 0 0 -19 0 0 0 0 0 0 0 0 0 0 0 0 0 0 0 0 0 0 -32 -22 -22
0 0 0 0 0 0 0 0 0 0 -29 -107 -39 -51 -75 -24 0 -14 0 0 0 0 -28 -31 0 0 0 0 0 0 0 0 0 0 0 0 0 0 0 0 0 -28 -27
0 0 0 0 0 0 0 0 0 0 0 -4 -60 -4 -5 0 -94 -4 -53 0 -50 0 -77 -17 0 0 0 0 0 0 0 0 0 0 0 0 0 0 0 0 0 0 0
0 0 0 0 0 0 0 0 0 0 0 0 0 0 0 -112 -55 -78 0 -62 0 -54 -84 -50 -25 0 0 0 0 0 0 0 0 0 0 0 0 0 0 0 0 0 0
0 0 0 0 0 -31 -13 0 0 -42 -12 -23 -39 -14 -38 -89 -77 -70 -49 0 -48 -39 -15 -46 -30 -40 0 0 0 0 0 0 0 0 0 0 0 0 0 0 0 0 0
0 0 0 0 -5 -10 -29 0 -15 -26 -26 -34 -62 -54 -54 -59 -65 -62 -73 -70 0 -55 -48 0 0 0 0 0 0 0 0 0 0 0 0 0 0 0 0 0 0 0 0
0 0 0 0 -18 -27 -44 -45 -44 -25 -27 -46 -51 -67 -59 -54 0 -86 -41 -57 -62 -27 -23 -1 -8 0 0 0 0 0 0 0 0 0 0 0 0 0 0 0 0 0 0
0 0 0 0 0 -24 -56 -59 -88 -46 -53 -57 -51 -92 -63 -73 -57 -87 -18 0 -5 -74 -38 -30 -23 -3 0 0 0 0 0 0 0 0 0 0 0 0 0 0 0 0 0
0 0 0 0 0 0 -30 -67 0 -5 -43 -20 -45 -73 -63 -75 -60 -59 -58 -37 -2 -26 0 0 -4 -17 -6 0 0 0 0 0 0 0 0 0 0 0 0 0 0 0 0
0 0 0 0 0 0 0 0 0 0 -9 -58 -45 -36 -52 -6 -11 -4 -28 -8 -34 -61 0 0 0 -6 0 0 0 0 0 0 0 0 0 0 0 0 0 0 0 0 0
0 0 0 0 0 0 0 0 0 0 -86 -83 -97 -82 0 -1 0 0 0 -6 -7 -31 -17 0 0 0 0 0 0 0 0 0 0 0 0 0 0 0 0 0 0 0 0
Wind_Speed
7 7 6 5 6 6 7 7 7 6 7 8 7 8 8 8 8 5 5 9 8 9 11 12 13 13 14 11 13 16 16 16 16 17 14 15 17 18 17 17 16 17 15
8 7 6 6 6 6 6 6 6 6 6 6 7 7 7 7 8 6 5 5 9 10 11 12 11 12 12 12 11 13 14 15 15 16 17 15 17 17 18 16 15 17 15
9 8 6 6 6 6 8 7 6 6 6 5 7 6 6 6 7 6 4 4 4 9 12 11 11 11 10 11 11 11 12 13 16 15 15 14 16 15 17 14 14 14 14
10 8 7 6 6 7 7 7 6 5 5 5 6 5 4 5 9 6 3 4 5 4 6 11 11 10 8 10 11 11 10 10 12 13 12 11 11 13 15 13 12 12 13
10 9 7 6 8 7 7 7 4 5 5 5 5 4 3 3 8 6 4 5 5 4 3 8 9 9 8 8 9 8 8 8 9 11 10 10 10 10 11 10 10 10 12
10 7 5 7 7 7 8 6 6 4 4 6 5 3 2 1 1 3 6 4 4 4 3 4 3 4 9 8 6 6 5 7 7 7 8 9 9 8 8 6 8 9 11
9 8 5 6 5 6 6 7 5 5 4 4 6 2 1 1 1 1 1 2 4 4 4 3 2 1 2 6 6 6 5 7 6 7 5 7 6 5 6 6 8 9 11
9 8 8 7 7 5 7 7 6 3 2 6 3 2 2 2 2 1 1 2 3 2 3 4 4 3 1 0 2 4 4 4 3 3 5 5 7 9 10 8 8 10 10
10 10 10 8 8 7 7 7 7 8 4 3 2 3 3 3 1 1 3 3 3 3 3 3 4 4 4 3 2 1 1 2 3 2 4 3 4 6 6 8 7 9 9
10 10 9 10 10 7 7 9 9 5 5 6 2 1 3 2 2 1 2 3 4 4 4 3 4 4 5 4 5 4 4 3 4 4 2 3 2 2 2 2 6 8 7
9 10 9 10 9 7 8 10 9 8 7 5 4 3 2 1 1 1 2 1 3 5 5 5 5 5 6 5 5 5 8 7 6 5 5 5 5 4 5 7 5 5 5
6 9 8 9 9 9 10 9 8 9 8 4 6 6 5 4 4 3 2 2 2 1 2 4 6 6 5 6 7 7 9 9 9 8 7 7 5 4 8 4 7 5 2
3 6 10 9 8 9 9 9 10 9 8 9 10 7 4 5 4 3 2 2 3 1 2 3 5 6 6 7 8 10 10 10 10 11 10 9 6 4 4 8 5 7 5
4 5 7 7 9 10 9 9 8 7 8 8 8 9 6 7 5 4 4 4 2 2 1 5 2 4 5 6 7 10 9 11 11 12 13 11 4 2 4 8 9 7 7
3 5 7 8 8 8 10 10 8 10 9 10 9 8 7 6 5 6 4 4 4 4 4 2 3 2 3 3 6 8 9 9 12 12 12 11 9 5 5 6 8 11 9
4 5 7 8 8 9 9 10 8 9 9 6 6 8 7 6 6 6 4 6 5 5 5 3 4 3 2 3 3 7 8 6 10 12 12 11 10 9 8 8 9 9 12
7 6 7 7 9 9 9 9 9 9 11 8 9 10 9 9 7 6 6 6 6 5 4 3 4 3 3 6 4 5 5 7 6 12 12 11 10 9 10 10 9 8 10
3 5 7 8 9 9 9 11 11 10 10 10 11 9 10 6 10 7 7 7 8 6 5 10 4 5 6 5 5 5 5 5 6 8 11 10 10 11 11 10 10 10 9
6 5 6 8 9 10 10 10 11 11 12 11 11 12 12 10 10 8 6 7 6 5 6 5 7 3 4 3 5 5 4 5 5 5 9 10 12 12 10 11 11 10 8
6 5 6 8 9 11 11 11 12 12 12 12 11 12 11 10 10 10 8 9 7 6 5 5 5 6 5 3 4 5 5 5 6 4 7 8 9 9 11 12 12 13 12
6 6 6 7 7 8 7 10 11 12 12 10 10 9 8 9 10 9 6 8 8 7 6 6 6 3 4 4 6 3 6 4 5 5 3 4 5 6 8 11 10 12 12
8 9 8 6 7 5 9 11 9 9 10 9 8 8 7 10 11 14 14 11 11 10 10 7 7 6 10 7 6 7 6 4 4 4 5 4 4 7 4 5 10 11 12
9 8 8 6 6 7 8 10 11 6 5 6 6 6 6 5 11 9 14 15 13 14 12 9 8 9 11 10 6 5 6 5 7 3 3 3 4 5 4 4 9 11 11
8 8 8 8 5 5 7 9 11 7 6 7 7 7 8 8 9 9 8 8 11 10 11 10 11 10 9 8 10 7 6 4 1 1 3 4 3 3 1 1 2 5 8
8 7 8 9 7 6 7 8 5 6 7 8 9 10 9 9 11 14 9 10 9 10 9 14 12 12 12 13 9 5 4 4 3 4 5 3 3 2 2 1 0 4 2
8 8 9 8 8 8 8 8 6 5 7 7 8 9 12 14 13 12 11 10 10 10 8 4 5 9 10 9 15 11 7 6 3 1 5 5 3 4 1 1 1 1 1
Wind_Direction
138 132 129 121 119 128 122 113 112 117 114 105 95 91 87 80 73 61 88 64 66 72 96 87 74 75 74 46 48 44 43 51 52 53 75 78 74 69 61 51 59 54 51
145 141 138 130 128 131 127 127 119 121 118 122 108 99 94 91 79 72 82 72 80 83 82 75 68 67 61 65 60 46 46 43 45 50 51 77 81 73 66 57 47 58 50
155 148 145 142 135 125 130 120 108 108 124 121 118 117 118 106 89 75 54 55 66 53 66 58 77 72 60 71 60 58 40 37 37 39 49 56 73 70 58 59 59 57 58
160 156 155 155 145 135 142 132 125 118 126 143 141 141 135 123 106 83 74 70 71 61 49 61 54 45 67 79 72 69 62 41 37 41 43 41 52 57 61 49 60 56 60
162 162 163 159 153 140 147 142 127 130 141 139 137 132 102 149 129 132 115 95 84 80 77 61 43 37 70 56 50 57 68 57 42 38 34 36 44 49 62 45 60 60 59
160 152 152 158 162 154 150 152 141 112 138 140 125 108 52 151 37 153 156 152 140 134 110 84 59 42 33 43 55 41 82 67 55 44 35 40 33 45 51 55 70 60 64
157 153 153 155 161 159 149 149 130 130 123 142 129 126 101 42 40 118 220 188 167 164 152 135 98 84 55 36 50 48 44 75 61 48 46 39 38 52 73 84 79 61 70
161 161 161 169 171 156 160 162 146 129 111 179 134 120 167 189 187 189 256 237 236 205 189 174 166 177 166 59 38 28 33 40 38 94 71 30 31 52 64 64 88 73 71
173 173 173 171 169 173 180 176 168 157 140 187 222 139 150 212 208 181 208 218 223 229 234 226 213 205 198 202 213 189 357 358 317 13 123 94 11 26 40 61 70 81 69
182 181 182 172 173 174 176 189 184 174 155 168 194 165 68 122 171 174 210 240 230 233 231 233 231 225 230 223 215 218 218 239 283 303 228 138 122 227 135 94 70 83 64
186 186 184 183 175 183 188 190 187 193 186 155 165 154 141 109 113 165 250 210 245 236 232 227 228 235 228 225 231 228 218 220 235 270 284 219 193 220 187 139 108 69 59
175 188 181 191 190 189 185 187 190 193 194 170 183 177 178 167 193 162 185 202 245 232 252 231 234 231 224 229 222 225 226 222 225 234 256 266 224 230 177 193 159 139 28
167 176 185 186 190 196 197 194 194 196 196 199 190 201 198 195 152 159 153 160 246 267 294 236 241 232 230 229 232 210 220 227 227 232 238 252 264 254 227 170 186 164 159
204 190 199 195 200 191 201 202 201 201 197 205 195 204 208 210 184 170 179 149 222 232 262 254 241 230 243 230 236 194 234 217 226 231 238 245 235 145 263 199 168 199 180
217 204 204 205 207 203 205 199 202 199 195 200 203 202 207 201 196 192 190 194 204 259 247 210 253 208 249 239 245 231 233 216 217 225 228 237 240 212 219 245 212 184 198
251 228 210 204 201 201 200 198 205 210 200 202 199 197 203 208 200 196 194 208 205 219 260 207 218 253 254 252 254 242 239 221 224 226 226 229 237 227 231 243 238 213 198
232 239 224 210 205 201 200 202 209 208 209 203 207 204 206 214 209 205 198 204 210 205 228 264 235 211 236 248 246 243 240 230 232 224 225 224 227 228 235 236 240 239 225
238 247 237 224 213 208 209 216 212 204 202 210 214 206 221 193 210 197 193 197 207 193 197 252 259 236 219 221 235 239 229 230 233 221 222 223 227 230 231 233 231 233 233
351 310 251 227 220 219 221 222 221 213 206 210 211 211 219 193 210 196 195 200 216 200 198 224 253 213 242 224 244 243 240 236 238 232 223 227 229 231 229 229 230 232 227
330 328 280 251 230 211 221 225 221 215 220 205 203 209 213 196 201 200 197 205 201 204 204 214 236 246 238 220 243 252 243 216 230 211 221 227 232 233 234 233 228 223 222
339 334 317 264 239 218 221 224 223 214 204 200 189 193 201 200 201 195 191 208 198 208 209 215 227 221 235 210 219 221 241 251 225 204 204 201 217 226 230 232 242 223 222
350 346 330 340 271 232 221 209 212 213 208 191 197 188 195 198 213 212 208 206 197 206 216 217 224 217 236 234 231 232 231 212 252 192 188 230 189 225 219 228 228 221 214
341 341 333 330 335 255 218 220 218 216 197 206 210 194 200 204 213 217 218 216 213 215 219 213 220 220 243 234 207 204 208 216 236 183 163 229 191 233 235 233 232 225 222
333 328 325 324 318 312 259 226 220 221 219 209 211 214 208 208 213 210 215 216 225 227 229 234 241 248 243 231 202 213 209 207 66 180 207 213 158 193 158 359 358 249 232
323 323 312 316 308 298 323 287 241 223 221 221 224 220 217 229 216 206 217 227 235 238 226 226 225 231 216 211 193 145 170 160 212 223 201 193 183 171 178 183 19 6 346
315 314 308 310 306 297 320 285 244 239 227 226 229 235 218 229 227 211 217 227 230 234 225 208 230 238 235 232 183 202 174 187 162 208 197 189 155 155 191 154 252 279 200